P/2010 D1 ( WISE )

Japanese version
Home page
Updated on March 15, 2010

---------------------------------------------------------------------

* Profile

Discovery Date February 17, 2010
Magnitude
Discoverer Wide Field Infrared Survey Explorer (NASA)

* Orbital Elements

Epoch 2009 June 18.0 TT = JDT 2455000.5
T 2009 June 25.58992 TT                                 MPC
q   2.6689628            (2000.0)            P               Q
n   0.11667016     Peri.  225.90030     +0.88925439     -0.45411453
a   4.1479118      Node   160.90079     +0.45275306     +0.85678030
e   0.3565527      Incl.    9.64709     +0.06512527     +0.24435119
P   8.45

* Magnitudes Graph

        m1 = 12.5 + 5 log d + 10.0 log r

---------------------------------------------------------------------

The orbital elements are published on M.P.E.C. 2010-D51.
The magnitudes graphs are made with Comet for Windows.

---------------------------------------------------------------------

Copyright(C) Seiichi Yoshida (comet@aerith.net). All rights reserved.